Flag for Brazil Weather past 2 weeks in Pirassununga, São Paulo, Brazil

Now
72 °F

Clear.


Feels Like: 67 °F
Forecast: 69 / 88 °F
Wind: No wind

Location: Pirassununga Airport

Current Time: Mar 27, 2015 at 11:49:06 PM

Latest Report: Mar 27, 2015 at 11:00 PM


Visibility: 10 mi

Pressure: 30.12 "Hg

Humidity: 94%

Dew point: 70 °F

Location of PirassunungaLocation

Historic Weather in Pirassununga — Graph

°F

Pirassununga temperature yesterday

Maximum temperature yesterday: 90 °F (at 4:00 PM)
Minimum temperature yesterday: 64 °F (at 6:00 AM)
Average temperature yesterday: 79 °F

Past Weeks' High & Low Weather Summary

 TemperatureHumidityPressure
High90 °F (Mar 25, 3:00 PM)100% (Mar 14, 7:00 AM)30.18 "Hg (Mar 14, 7:00 AM)
Low63 °F (Mar 24, 6:00 AM)43% (Mar 25, 3:00 PM)29.83 "Hg (Mar 21, 4:00 PM)
Average75 °F81%30.02 "Hg
* Reported Mar 12 10:00 PM — Mar 27 10:00 PM, Pirassununga, Weather by CustomWeather, © 2015

Note: Actual official high and low records may vary slightly from our data, if they occured in-between our weather recording intervals... More about our weather records

Advertising

Pirassununga weather history for previous 24 hours

 ConditionsComfort  
Time TempWeatherWind HumidityBarometerVisibility
10:00 PM
Fri, Mar 27
72 °FPartly cloudy.5 mph94%30.12 "HgN/A
9:00 PM72 °FLight rain. Mostly cloudy.7 mph94%30.12 "Hg5 mi
8:00 PM73 °FLight rain. Mostly cloudy.6 mph94%30.09 "Hg3 mi
7:00 PM72 °FThunderstorms. Mostly cloudy.8 mph94%30.09 "Hg3 mi
6:00 PM79 °FThunderstorms. Mostly cloudy.15 mph74%30.07 "Hg1 mi
5:00 PM88 °FScattered showers. Scattered clouds.6 mph55%30.01 "HgN/A
4:00 PM90 °FScattered clouds.7 mph49%30.01 "HgN/A
3:00 PM90 °FScattered clouds.7 mph46%30.01 "HgN/A
2:00 PM90 °FScattered clouds.3 mph49%30.04 "HgN/A
1:00 PM90 °FScattered clouds.5 mph46%30.04 "HgN/A
12:00 PM88 °FScattered clouds.5 mph52%30.07 "HgN/A
11:00 AM86 °FPassing clouds.2 mph55%30.09 "HgN/A
10:00 AM82 °FPassing clouds.1 mph66%30.09 "HgN/A
9:00 AM77 °FHaze.3 mph79%30.09 "Hg3 mi
8:00 AM72 °FFog.2 mph94%30.07 "Hg2 mi
7:00 AM70 °FFog.No wind94%30.07 "Hg1 mi
6:00 AM68 °FFog.3 mph94%30.01 "Hg1 mi
11:00 PM
Thu, Mar 26
73 °FClear.1 mph89%30.01 "Hg10 mi
Weather by CustomWeather, © 2015

See weather overviewHow to use our weather pages